EW9596 Weather Reports


Display with metric or nautical units.
time (UTC)temp
F
wind
direction
speed
MPH
gust
MPH
rain 1hr
in
rain 24hr
in
rain mn
in
humidity
%
barometer
mb
20260831175002 68 150 0.0 0.0 0.06 0.22 0.22 88 1019.8
20260831174502 68 150 0.0 0.0 0.06 0.22 0.22 88 1019.9
20260831174002 68 150 0.0 0.0 0.06 0.21 0.21 87 1020.0
20260831173503 68 150 0.0 0.0 0.07 0.21 0.21 87 1020.1
20260831173001 68 150 0.0 0.0 0.07 0.21 0.21 87 1020.2
20260831172502 68 150 0.0 0.0 0.08 0.21 0.21 87 1020.2
20260831172100 68 150 0.0 0.0 0.07 0.20 0.20 86 1020.3
20260831171600 68 151 0.0 0.0 0.08 0.20 0.20 86 1020.4
20260831171502 68 151 0.0 0.0 0.08 0.20 0.20 86 1020.4
20260831171100 68 151 0.0 0.0 0.08 0.18 0.18 86 1020.4
20260831170600 68 151 0.0 0.0 0.11 0.18 0.18 86 1020.5
20260831170100 68 151 0.0 0.0 0.13 0.16 0.16 85 1020.5
20260831165602 68 151 0.0 0.0 0.16 0.16 0.16 85 1020.5
20260831165102 68 151 0.0 0.0 0.16 0.16 0.16 85 1020.5
20260831164600 69 151 0.0 0.0 0.16 0.16 0.16 85 1020.5
20260831164059 69 151 0.0 0.0 0.15 0.15 0.15 85 1020.5
20260831163559 69 151 0.0 0.0 0.14 0.14 0.14 85 1020.6
20260831163059 69 151 0.0 0.0 0.14 0.14 0.14 84 1020.6
20260831162559 69 150 0.0 0.0 0.13 0.13 0.13 84 1020.6
20260831162102 69 150 0.0 0.0 0.13 0.13 0.13 84 1020.7
20260831161559 69 150 0.0 2.0 0.12 0.12 0.12 84 1020.7
20260831161058 70 150 0.0 2.0 0.10 0.10 0.10 84 1020.8
20260831160601 70 125 0.0 6.0 0.07 0.07 0.07 84 1020.9
20260831160107 70 125 0.0 6.0 0.02 0.02 0.02 83 1020.8
20260831155558 70 334 1.0 6.0 0.00 0.00 0.00 84 1020.7
20260831155100 70 337 0.0 0.0 0.00 0.00 0.00 84 1020.6
20260831154557 70 337 0.0 0.0 0.00 0.00 0.00 84 1020.4
20260831154055 70 337 0.0 0.0 0.00 0.00 0.00 84 1020.4
20260831153555 70 337 0.0 0.0 0.00 0.00 0.00 84 1020.3
20260831153056 70 337 0.0 0.0 0.00 0.00 0.00 84 1020.3
20260831152555 70 337 0.0 0.0 0.00 0.00 0.00 84 1020.3
20260831152054 70 337 0.0 0.0 0.00 0.00 0.00 84 1020.4
20260831151554 69 337 0.0 0.0 0.00 0.00 0.00 85 1020.5
20260831151053 69 337 0.0 0.0 0.00 0.00 0.00 85 1020.5
20260831150552 69 339 0.0 2.0 0.00 0.00 0.00 85 1020.4
20260831150101 69 343 0.0 3.0 0.00 0.00 0.00 85 1020.4
20260831145551 69 12 0.0 3.0 0.00 0.00 0.00 86 1020.3
20260831145054 69 11 0.0 0.0 0.00 0.00 0.00 86 1020.3
20260831144558 69 12 0.0 0.0 0.00 0.00 0.00 87 1020.4
20260831144050 69 11 0.0 0.0 0.00 0.00 0.00 86 1020.4
20260831143550 68 12 0.0 0.0 0.00 0.00 0.00 87 1020.3
20260831143050 68 12 0.0 0.0 0.00 0.00 0.00 87 1020.2
20260831142549 68 13 0.0 0.0 0.00 0.00 0.00 87 1020.3
20260831142049 68 13 0.0 0.0 0.00 0.00 0.00 87 1020.4
20260831141548 68 13 0.0 0.0 0.00 0.00 0.00 88 1020.5
20260831141051 68 13 0.0 0.0 0.00 0.00 0.00 88 1020.4
20260831140547 67 12 0.0 3.0 0.00 0.00 0.00 88 1020.3
20260831140048 67 12 1.0 3.0 0.00 0.00 0.00 88 1020.4
20260831135552 67 38 1.0 4.0 0.00 0.00 0.00 88 1020.4
20260831135048 67 49 1.0 4.0 0.00 0.00 0.00 89 1020.3
20260831134552 67 13 2.0 4.0 0.00 0.00 0.00 89 1020.2
20260831134047 67 360 0.0 0.0 0.00 0.00 0.00 89 1020.3
20260831133549 66 360 0.0 0.0 0.00 0.00 0.00 89 1020.5
20260831133046 66 360 0.0 1.0 0.00 0.00 0.00 89 1020.6
20260831132546 66 360 0.0 3.0 0.00 0.00 0.00 89 1020.6
20260831132147 66 360 1.0 4.0 0.00 0.00 0.00 89 1020.6
20260831131551 66 355 2.0 4.0 0.00 0.00 0.00 90 1020.8
20260831131045 66 338 2.0 4.0 0.00 0.00 0.00 90 1020.8
20260831130544 65 34 0.0 3.0 0.00 0.00 0.00 90 1020.7
20260831130049 65 309 0.0 0.0 0.00 0.00 0.00 90 1020.7
20260831125544 65 309 0.0 0.0 0.00 0.00 0.00 90 1020.8
20260831125045 65 309 0.0 0.0 0.00 0.00 0.00 90 1020.8
20260831124550 65 304 0.0 0.0 0.00 0.00 0.00 90 1020.7
20260831124045 65 300 0.0 3.0 0.00 0.00 0.00 90 1020.6
20260831123542 65 290 0.0 3.0 0.00 0.00 0.00 90 1020.6
20260831123043 64 290 0.0 3.0 0.00 0.00 0.00 90 1020.6
20260831122546 64 290 1.0 3.0 0.00 0.00 0.00 90 1020.6
20260831122042 64 287 0.0 2.0 0.00 0.00 0.00 90 1020.7
20260831121542 64 284 0.0 0.0 0.00 0.00 0.00 90 1020.7
20260831121042 64 279 0.0 0.0 0.00 0.00 0.00 90 1020.9
20260831120541 64 279 0.0 0.0 0.00 0.00 0.00 89 1021.0
20260831120043 64 279 0.0 0.0 0.00 0.00 0.00 89 1021.0
20260831115540 63 279 0.0 0.0 0.00 0.00 0.00 89 1021.0
20260831115043 63 226 0.0 0.0 0.00 0.00 0.00 89 1021.0
20260831114539 63 226 0.0 0.0 0.00 0.00 0.00 89 1020.9
20260831114038 63 226 0.0 0.0 0.00 0.00 0.00 89 1020.9
20260831113538 63 226 0.0 0.0 0.00 0.00 0.00 89 1020.8
20260831113038 63 227 0.0 0.0 0.00 0.00 0.00 89 1020.7
20260831112538 63 226 0.0 0.0 0.00 0.00 0.00 88 1020.7
20260831112038 63 226 0.0 0.0 0.00 0.00 0.00 88 1020.7
20260831111537 63 226 0.0 0.0 0.00 0.00 0.00 88 1020.8
20260831111037 63 226 0.0 0.0 0.00 0.00 0.00 88 1020.8
20260831110538 63 226 0.0 0.0 0.00 0.00 0.00 88 1020.7
20260831110042 63 226 0.0 0.0 0.00 0.00 0.00 88 1020.6
20260831105538 63 226 0.0 0.0 0.00 0.00 0.00 88 1020.4
20260831105039 63 226 0.0 0.0 0.00 0.00 0.00 88 1020.3
20260831104635 63 226 0.0 0.0 0.00 0.00 0.00 88 1020.3
20260831104035 63 226 0.0 0.0 0.00 0.00 0.00 88 1020.1
20260831103534 63 227 0.0 0.0 0.00 0.00 0.00 88 1020.1
20260831103034 63 226 0.0 0.0 0.00 0.00 0.00 88 1020.1
20260831102534 63 227 0.0 0.0 0.00 0.00 0.00 88 1020.1
20260831102034 63 226 0.0 0.0 0.00 0.00 0.00 88 1020.2
20260831101539 63 226 0.0 0.0 0.00 0.00 0.00 88 1020.2
20260831101034 63 226 0.0 0.0 0.00 0.00 0.00 88 1020.1
20260831100535 63 227 0.0 0.0 0.00 0.00 0.00 87 1020.2
20260831100033 63 226 0.0 0.0 0.00 0.00 0.00 87 1020.2
20260831095533 63 226 0.0 0.0 0.00 0.00 0.00 87 1020.1
20260831095036 63 226 0.0 0.0 0.00 0.00 0.00 87 1020.1
20260831094532 63 227 0.0 0.0 0.00 0.00 0.00 87 1020.1
20260831094031 63 220 0.0 0.0 0.00 0.00 0.00 86 1020.1
20260831093531 63 220 0.0 0.0 0.00 0.00 0.00 86 1020.3
20260831093032 63 220 0.0 0.0 0.00 0.00 0.00 86 1020.4
20260831092531 63 220 0.0 0.0 0.00 0.00 0.00 86 1020.3
20260831092030 63 220 0.0 0.0 0.00 0.00 0.00 86 1020.4
20260831091549 64 220 0.0 0.0 0.00 0.00 0.00 86 1020.4
20260831091033 64 220 0.0 0.0 0.00 0.00 0.00 86 1020.4
20260831090530 64 220 0.0 0.0 0.00 0.00 0.00 86 1020.4
20260831090030 64 220 0.0 0.0 0.00 0.00 0.00 86 1020.2
20260831085529 64 220 0.0 0.0 0.00 0.00 0.00 85 1020.2
20260831085029 64 220 0.0 0.0 0.00 0.00 0.00 85 1020.1
20260831084528 64 220 0.0 0.0 0.00 0.00 0.00 85 1019.9
20260831084026 64 220 0.0 0.0 0.00 0.00 0.00 85 1019.9
20260831083526 64 220 0.0 0.0 0.00 0.00 0.00 85 1020.0
20260831083026 64 220 0.0 0.0 0.00 0.00 0.00 85 1020.1
20260831082527 65 220 0.0 0.0 0.00 0.00 0.00 85 1020.0
20260831082025 65 220 0.0 0.0 0.00 0.00 0.00 84 1020.1
20260831081534 65 220 0.0 0.0 0.00 0.00 0.00 84 1020.0
20260831081024 65 220 0.0 0.0 0.00 0.00 0.00 84 1020.0
20260831080523 65 220 0.0 0.0 0.00 0.00 0.00 84 1019.9
20260831080051 65 220 0.0 0.0 0.00 0.00 0.00 84 1019.9
20260831075522 65 220 0.0 0.0 0.00 0.00 0.00 84 1019.9
20260831075022 66 220 0.0 0.0 0.00 0.00 0.00 84 1019.9
20260831074522 66 220 0.0 0.0 0.00 0.00 0.00 84 1020.0
20260831074024 66 220 0.0 0.0 0.00 0.00 0.00 84 1020.1
20260831073521 66 220 0.0 0.0 0.00 0.00 0.00 84 1020.1
20260831073051 66 220 0.0 0.0 0.00 0.00 0.00 84 1020.1
20260831072519 66 220 0.0 0.0 0.00 0.00 0.00 83 1020.1
20260831072021 66 220 0.0 0.0 0.00 0.00 0.00 84 1020.0
20260831071519 66 220 0.0 0.0 0.00 0.00 0.00 84 1019.9
20260831071025 66 220 0.0 0.0 0.00 0.00 0.00 83 1020.0
20260831070519 66 220 0.0 0.0 0.00 0.00 0.00 83 1020.1
20260831070019 66 220 0.0 0.0 0.00 0.00 0.00 83 1020.0
20260831065520 66 220 0.0 0.0 0.00 0.00 0.00 83 1020.0
20260831065019 66 220 0.0 0.0 0.00 0.00 0.00 83 1019.9
20260831064519 66 220 0.0 0.0 0.00 0.00 0.00 83 1019.9
20260831064017 67 220 0.0 0.0 0.00 0.00 0.00 83 1020.0
20260831063516 67 220 0.0 0.0 0.00 0.00 0.00 83 1020.0
20260831063024 67 220 0.0 0.0 0.00 0.00 0.00 83 1020.0
20260831062516 67 220 0.0 0.0 0.00 0.00 0.00 83 1020.1
20260831062016 67 220 0.0 0.0 0.00 0.00 0.00 83 1020.3
20260831061515 67 220 0.0 0.0 0.00 0.00 0.00 83 1020.2
20260831061015 67 220 0.0 0.0 0.00 0.00 0.00 83 1020.2
20260831060513 67 220 0.0 0.0 0.00 0.00 0.00 83 1020.4
20260831060019 67 220 0.0 0.0 0.00 0.00 0.00 83 1020.5
20260831055512 67 220 0.0 0.0 0.00 0.00 0.00 83 1020.6
20260831055012 67 220 0.0 0.0 0.00 0.00 0.00 83 1020.7
20260831054516 67 220 0.0 0.0 0.00 0.00 0.00 83 1020.7
20260831054013 67 220 0.0 0.0 0.00 0.00 0.00 83 1020.6
20260831053511 67 220 0.0 0.0 0.00 0.00 0.00 82 1020.6
20260831053011 67 220 0.0 0.0 0.00 0.00 0.00 82 1020.6
20260831052511 67 220 0.0 0.0 0.00 0.00 0.00 82 1020.7
20260831052010 67 220 0.0 0.0 0.00 0.00 0.00 82 1020.6
20260831051510 67 220 0.0 1.0 0.00 0.00 0.00 82 1020.7
20260831051010 67 220 0.0 1.0 0.00 0.00 0.00 82 1020.6
20260831050509 67 220 0.0 0.0 0.00 0.00 0.00 82 1020.6
20260831050009 67 220 0.0 0.0 0.00 0.00 0.00 82 1020.6
20260831045510 67 220 0.0 1.0 0.00 0.00 0.00 82 1020.6
20260831045009 67 220 0.0 1.0 0.00 0.00 0.00 82 1020.7
20260831044509 68 220 0.0 0.0 0.00 0.00 0.00 82 1020.7
20260831044008 68 220 0.0 0.0 0.00 0.00 0.00 81 1020.6
20260831043507 68 220 0.0 0.0 0.00 0.00 0.00 81 1020.7
20260831043007 68 220 0.0 0.0 0.00 0.00 0.00 81 1020.6
20260831042507 68 220 0.0 0.0 0.00 0.00 0.00 81 1020.7
20260831042007 68 220 0.0 0.0 0.00 0.00 0.00 81 1020.7
20260831041507 68 220 0.0 0.0 0.00 0.00 0.00 81 1020.7
20260831041010 68 220 0.0 0.0 0.00 0.00 0.00 81 1020.6
20260831040506 68 220 0.0 0.0 0.00 0.00 0.00 81 1020.6
20260831040005 68 220 0.0 0.0 0.00 0.00 0.00 80 1020.5
20260831035504 68 220 0.0 0.0 0.00 0.00 0.00 80 1020.5
20260831035004 68 220 0.0 0.0 0.00 0.00 0.00 80 1020.6
20260831034504 68 220 0.0 0.0 0.00 0.00 0.00 80 1020.7
20260831034003 68 220 0.0 0.0 0.00 0.00 0.00 80 1020.5
20260831033503 68 220 0.0 0.0 0.00 0.00 0.00 80 1020.5
20260831033003 68 220 0.0 0.0 0.00 0.00 0.00 80 1020.6
20260831032503 68 220 0.0 0.0 0.00 0.00 0.00 80 1020.6
20260831032004 68 220 0.0 0.0 0.00 0.00 0.00 80 1020.7
20260831031502 68 220 0.0 0.0 0.00 0.00 0.00 80 1020.7
20260831031002 68 220 0.0 0.0 0.00 0.00 0.00 80 1020.8
20260831030502 68 220 0.0 0.0 0.00 0.00 0.00 79 1020.6
20260831030003 69 220 0.0 0.0 0.00 0.00 0.00 79 1020.6
20260831025502 69 219 0.0 0.0 0.00 0.00 0.00 79 1020.5
20260831025003 69 219 0.0 1.0 0.00 0.00 0.00 79 1020.6
20260831024504 69 219 0.0 2.0 0.00 0.00 0.00 79 1020.6
20260831024001 69 219 0.0 2.0 0.00 0.00 0.00 79 1020.7
20260831023502 69 219 0.0 2.0 0.00 0.00 0.00 79 1020.7
20260831023001 69 233 0.0 0.0 0.00 0.00 0.00 79 1020.7
20260831022502 69 233 0.0 0.0 0.00 0.00 0.00 79 1020.7
20260831022101 69 233 0.0 2.0 0.00 0.00 0.00 79 1020.7
20260831021601 69 233 0.0 3.0 0.00 0.00 0.00 79 1020.7
20260831021103 69 233 0.0 4.0 0.00 0.00 0.00 79 1020.8
20260831020502 69 248 0.0 0.0 0.00 0.00 0.00 79 1020.7
20260831020104 69 174 0.0 0.0 0.00 0.00 0.00 79 1020.8
20260831015601 69 192 0.0 0.0 0.00 0.00 0.00 78 1020.7
20260831015100 69 236 0.0 0.0 0.00 0.00 0.00 78 1020.7
20260831014600 69 170 0.0 2.0 0.00 0.00 0.00 78 1020.7
20260831014101 69 168 0.0 3.0 0.00 0.00 0.00 78 1020.7
20260831013701 69 167 1.0 4.0 0.00 0.00 0.00 78 1020.7
20260831013109 69 272 1.0 5.0 0.00 0.00 0.00 78 1020.6
20260831012600 69 244 2.0 7.0 0.00 0.00 0.00 78 1020.6
20260831012059 69 221 3.0 10.0 0.00 0.00 0.00 78 1020.6
20260831011559 69 232 3.0 10.0 0.00 0.00 0.00 78 1020.6
20260831011102 69 227 4.0 9.0 0.00 0.00 0.00 78 1020.6
20260831010559 69 240 4.0 9.0 0.00 0.00 0.00 78 1020.6
20260831010121 69 184 3.0 8.0 0.00 0.00 0.00 78 1020.5
20260831005559 69 251 3.0 9.0 0.00 0.00 0.00 78 1020.6
20260831005058 69 198 4.0 9.0 0.00 0.00 0.00 78 1020.4
20260831004609 69 244 2.0 8.0 0.00 0.00 0.00 79 1020.5
20260831004101 70 219 1.0 3.0 0.00 0.00 0.00 79 1020.4
20260831003557 70 267 0.0 0.0 0.00 0.00 0.00 79 1020.4
20260831003105 70 267 0.0 0.0 0.00 0.00 0.00 79 1020.1
20260831002557 70 267 0.0 1.0 0.00 0.00 0.00 79 1020.1
20260831002057 70 267 0.0 1.0 0.00 0.00 0.00 78 1019.8
20260831001557 70 267 0.0 1.0 0.00 0.00 0.00 78 1019.7
20260831001057 70 267 0.0 2.0 0.00 0.00 0.00 78 1019.6
20260831000557 70 267 0.0 1.0 0.00 0.00 0.00 78 1019.6
20260831000057 70 267 0.0 3.0 0.00 0.00 0.00 78 1019.6
20260830235559 70 267 0.0 4.0 0.00 0.00 0.00 78 1019.5
20260830235056 70 281 1.0 8.0 0.00 0.00 0.00 78 1019.5
20260830234556 70 254 0.0 2.0 0.00 0.00 0.00 77 1019.4
20260830234056 70 193 0.0 0.0 0.00 0.00 0.00 77 1019.5
20260830233555 70 193 0.0 0.0 0.00 0.00 0.00 77 1019.4
20260830233055 71 193 0.0 0.0 0.00 0.00 0.00 77 1019.4
20260830232554 71 193 0.0 0.0 0.00 0.00 0.00 77 1019.4
20260830232055 71 193 0.0 0.0 0.00 0.00 0.00 76 1019.3
20260830231555 71 193 0.0 0.0 0.00 0.00 0.00 76 1019.3
20260830231054 71 193 0.0 0.0 0.00 0.00 0.00 76 1019.2
20260830230554 71 193 0.0 0.0 0.00 0.00 0.00 76 1019.2
20260830230054 71 193 0.0 0.0 0.00 0.00 0.00 76 1019.3
20260830225554 71 193 0.0 0.0 0.00 0.00 0.00 76 1019.3
20260830225054 71 193 0.0 0.0 0.00 0.00 0.00 76 1019.4
20260830224554 71 193 0.0 0.0 0.00 0.00 0.00 75 1019.3
20260830224055 72 193 0.0 0.0 0.00 0.00 0.00 75 1019.3
20260830223553 72 193 0.0 0.0 0.00 0.00 0.00 75 1019.4
20260830223053 72 193 0.0 0.0 0.00 0.00 0.00 75 1019.3
20260830222552 72 193 0.0 0.0 0.00 0.00 0.00 75 1019.1
20260830222052 72 193 0.0 0.0 0.00 0.00 0.00 75 1019.2
20260830221552 72 193 0.0 1.0 0.00 0.00 0.00 75 1019.3
20260830221052 72 237 0.0 3.0 0.00 0.00 0.00 75 1019.2
20260830220552 72 237 0.0 3.0 0.00 0.00 0.00 75 1019.2
20260830220052 72 217 0.0 2.0 0.00 0.00 0.00 75 1019.1
20260830215556 72 217 0.0 2.0 0.00 0.00 0.00 75 1019.1
20260830215052 72 217 0.0 2.0 0.00 0.00 0.00 75 1019.0
20260830214552 72 220 0.0 3.0 0.00 0.00 0.00 75 1019.0
20260830214051 72 220 0.0 3.0 0.00 0.00 0.00 74 1019.1
20260830213551 72 201 0.0 0.0 0.00 0.00 0.00 74 1019.1
20260830213051 72 198 0.0 2.0 0.00 0.00 0.00 74 1019.1
20260830212551 72 202 0.0 4.0 0.00 0.00 0.00 74 1019.2
20260830212051 72 154 1.0 5.0 0.00 0.00 0.00 74 1019.2
20260830211550 72 248 0.0 4.0 0.00 0.00 0.00 74 1019.2
20260830211050 73 248 2.0 4.0 0.00 0.00 0.00 74 1019.4
20260830210550 73 244 1.0 6.0 0.00 0.00 0.00 74 1019.4
20260830210049 73 251 2.0 5.0 0.00 0.00 0.00 73 1019.4
20260830205549 73 238 2.0 5.0 0.00 0.00 0.00 72 1019.4
20260830205049 73 208 0.0 4.0 0.00 0.00 0.00 72 1019.3
20260830204549 73 209 1.0 4.0 0.00 0.00 0.00 71 1019.4
20260830204049 73 264 2.0 7.0 0.00 0.00 0.00 71 1019.5
20260830203549 74 230 3.0 5.0 0.00 0.00 0.00 70 1019.6
20260830203048 74 236 0.0 0.0 0.00 0.00 0.00 71 1019.4
20260830202550 74 185 0.0 0.0 0.00 0.00 0.00 70 1019.3
20260830202047 74 185 0.0 0.0 0.00 0.00 0.00 70 1019.2
20260830201550 74 185 0.0 0.0 0.00 0.00 0.00 69 1019.1
20260830201052 74 185 0.0 0.0 0.00 0.00 0.00 69 1019.0
20260830200547 75 186 0.0 0.0 0.00 0.00 0.00 69 1019.1
20260830200048 74 186 0.0 2.0 0.00 0.00 0.00 68 1019.0
20260830195547 75 259 0.0 3.0 0.00 0.00 0.00 67 1019.0
20260830195047 75 252 0.0 7.0 0.00 0.00 0.00 67 1019.0
20260830194601 75 299 0.0 8.0 0.00 0.00 0.00 68 1018.9
20260830194047 75 263 2.0 8.0 0.00 0.00 0.00 68 1018.9
20260830193550 76 162 1.0 6.0 0.00 0.00 0.00 69 1019.0
20260830193046 76 277 2.0 6.0 0.00 0.00 0.00 69 1019.0
20260830192546 77 207 0.0 0.0 0.00 0.00 0.00 68 1018.9
20260830192046 77 208 0.0 0.0 0.00 0.00 0.00 67 1018.9
20260830191546 77 208 0.0 0.0 0.00 0.00 0.00 67 1018.7
20260830191048 78 208 0.0 0.0 0.00 0.00 0.00 66 1018.7
20260830190546 78 208 0.0 0.0 0.00 0.00 0.00 66 1018.7
20260830190045 78 208 0.0 0.0 0.00 0.00 0.00 65 1018.8
20260830185545 79 208 0.0 0.0 0.00 0.00 0.00 64 1018.7
20260830185044 79 207 0.0 0.0 0.00 0.00 0.00 64 1018.7
20260830184544 79 209 0.0 1.0 0.00 0.00 0.00 64 1018.7
20260830184045 80 209 0.0 3.0 0.00 0.00 0.00 64 1018.8
20260830183545 80 236 0.0 3.0 0.00 0.00 0.00 63 1018.8
20260830183045 80 236 1.0 3.0 0.00 0.00 0.00 63 1018.8
20260830182543 80 249 0.0 3.0 0.00 0.00 0.00 63 1018.8
20260830182043 80 250 1.0 4.0 0.00 0.00 0.00 62 1018.9
20260830181543 80 215 1.0 4.0 0.00 0.00 0.00 62 1018.9
20260830181044 80 241 0.0 4.0 0.00 0.00 0.00 63 1018.9
20260830180543 80 241 1.0 4.0 0.00 0.00 0.00 61 1018.9
20260830180041 80 238 2.0 6.0 0.00 0.00 0.00 60 1019.0
20260830175542 80 283 1.0 6.0 0.00 0.00 0.00 58 1019.0